Find Starlink 33814

NORAD ID: 63582 Int'l Des: 2025-076 Owner: SPXS Country: US Constellation: starlink operational
LEOCIRCULAR

現在のビュー

3D地球を読み込み中...

About Starlink 33814

Starlink 33814 (NORAD 63582) is a starlink constellation satellite (v2 mini) launched Apr 14, 2025 by SPXS of US. It operates in LEO, CIRCULAR orbit with a mass of 575.00 kg.

次回通過

Passes for default location (London). Set your location on the main map for personalized predictions.

高度履歴

Loading altitude history...

軌道要素

1 63582U 25076P 26264.39287805 .00000345 00000-0 22036-4 0 9995
2 63582 43.0027 296.2080 0001640 280.1709 79.8958 15.27608388 81763
Epoch: Sep 21, 2026 • Age: 27 hours

現在のステータス

高度 484.7 km
遠地点 / 近地点 N/A
速度 7.62 km/s
衛星直下点 -13.39°S, 93.58°E
打ち上げ日 Apr 14, 2025
運用期間 1.4 years
タイプ internet

技術仕様

分類 Payload
質量 575.00 kg
乾燥質量 530.00 kg
長さ 0.30 m
スパン 29.00 m
形状 ? Box + pan
製造者 SPXS
バスタイプ Starlink V2MO
フェーズステータス In Orbit
所有者/国 SPXS/US

Most Searched